User: anonymous   Login
Location: Stanford
(52.2833°N, 2.4333°W)
Time: 22:12:03
(UTC+00:00)
Language:

Feng Yun 1-1 Rocket - Orbit

View from above orbital plane
View from above orbital plane
View from above satellite
View from above satellite

Ground track
Ground track

The orbit data is extracted from the following two-line orbital elements,

1 19468U 88080B   21110.58323546  .00000203  00000-0  15458-3 0  9994
2 19468  99.2025 133.6783 0072361 112.5433 358.2915 14.03546359669943
Epoch (UTC): 20 April 2021 13:59:51
Eccentricity: 0.0072361
inclination: 99.2025°
perigee height: 829 km
apogee height: 934 km
right ascension of ascending node: 133.6783°
argument of perigee: 112.5433°
revolutions per day: 14.03546359
mean anomaly at epoch: 358.2915°
orbit number at epoch: 66994

The dashed part of the orbit path shows where the satellite is in the earth's shadow,  

DLR